Terminal Aerodrome Forecast
Issued by NWS North Platte, NE

Home | Current Version | Previous Version | Text Only | Print | Product List | Glossary On
Versions: 1 2 3 4 5 6 7 8 9 10 11 12 13 14 15 16 17 18
000
FTUS43 KLBF 181500 AAA
TAFVTN
TAF AMD
KVTN 181510Z 1815/1912 17013G20KT P6SM SKC
      TEMPO 1816/1818 P6SM SCT009
     FM181800 17014G19KT P6SM FEW012
     FM190300 16013G19KT P6SM OVC009=

USA.gov is the U.S. government's official web portal to all federal, state and local government web resources and services.